Tracking 28238 objects as of 28-Nov-2023
HD Live streaming from Space Station
objects crossing your sky now

OBJECT T

Track OBJECT T now!
10-day predictions


NORAD ID: 51841
Int'l Code: 2022-019T
Perigee: 504.1 km
Apogee: 521.2 km
Inclination: 97.5 °
Period: 94.7 minutes
Semi major axis: 6883 km
RCS: Unknown
Launch date: February 27, 2022
Source: People's Republic of China (PRC)
Launch site: Wenchang Satellite Launch Center (WSC)
Your satellite tracking list
Your tracking list is empty




NASA's NSSDC Master Catalog

Two Line Element Set (TLE):
1 51841U 22019T   23332.82484597  .00018251  00000-0  84484-3 0  9991
2 51841  97.4575  43.8204 0012446 211.4143 148.6350 15.20106137 96763
Source of the keplerian elements: AFSPC